EW9837 Weather Reports


Display with metric or nautical units.
time (UTC)temp
F
wind
direction
speed
MPH
gust
MPH
rain 1hr
in
rain 24hr
in
rain mn
in
humidity
%
barometer
mb
20260510094536 41 174 3.0 4.0 0.00 0.00 0.00 92 1018.2
20260510093035 41 180 3.0 4.0 0.00 0.00 0.00 91 1018.2
20260510091530 42 179 2.0 4.0 0.00 0.00 0.00 91 1018.4
20260510090032 42 155 3.0 4.0 0.00 0.00 0.00 91 1018.6
20260510083033 43 202 0.0 3.0 0.00 0.00 0.00 91 1018.8
20260510081535 43 159 1.0 3.0 0.00 0.00 0.00 90 1018.9
20260510080112 43 137 2.0 3.0 0.00 0.00 0.00 89 1019.1
20260510074538 44 148 3.0 4.0 0.00 0.00 0.00 88 1019.1
20260510073108 45 161 3.0 4.0 0.00 0.00 0.00 88 1019.1
20260510071536 45 177 0.0 3.0 0.00 0.00 0.00 87 1019.2
20260510070035 46 179 0.0 2.0 0.00 0.00 0.00 87 1019.2
20260510063037 46 137 3.0 4.0 0.00 0.00 0.00 85 1019.1
20260510061534 47 168 2.0 4.0 0.00 0.00 0.00 82 1019.0
20260510060111 48 206 1.0 3.0 0.00 0.00 0.00 83 1019.1
20260510054612 48 167 2.0 4.0 0.00 0.00 0.00 82 1019.0
20260510053044 49 135 3.0 4.0 0.00 0.00 0.00 80 1019.0
20260510051535 50 185 1.0 3.0 0.00 0.00 0.00 77 1018.9
20260510050037 51 180 0.0 0.0 0.00 0.00 0.00 75 1018.8
20260510044535 53 173 1.0 4.0 0.00 0.00 0.00 74 1018.7
20260510043036 53 155 3.0 4.0 0.00 0.00 0.00 74 1018.7
20260510041531 54 161 3.0 4.0 0.00 0.00 0.00 73 1018.6
20260510040149 57 169 3.0 4.0 0.00 0.00 0.00 72 1018.5
20260510034610 59 180 2.0 4.0 0.00 0.00 0.00 69 1018.4
20260510033035 62 180 2.0 3.0 0.00 0.00 0.00 66 1018.3
20260510030033 66 180 0.0 2.0 0.00 0.00 0.00 62 1018.4
20260510024537 68 181 1.0 2.0 0.00 0.00 0.00 58 1018.4
20260510021534 70 315 0.0 0.0 0.00 0.00 0.00 46 1018.4
20260510020034 72 315 0.0 0.0 0.00 0.00 0.00 40 1018.4
20260510014536 73 315 0.0 3.0 0.00 0.00 0.00 34 1018.7
20260510013035 72 318 0.0 2.0 0.00 0.00 0.00 34 1018.8
20260510011535 73 331 2.0 5.0 0.00 0.00 0.00 33 1018.9
20260510010037 73 337 3.0 6.0 0.00 0.00 0.00 34 1019.0
20260510004609 74 346 4.0 7.0 0.00 0.00 0.00 35 1019.0
20260510003109 74 342 4.0 9.0 0.00 0.00 0.00 37 1019.0
20260510001648 74 339 5.0 9.0 0.00 0.00 0.00 38 1019.1
20260510000037 73 330 4.0 8.0 0.00 0.00 0.00 38 1019.1
20260509234530 75 328 4.0 10.0 0.00 0.00 0.00 37 1019.2
20260509230032 74 300 3.0 7.0 0.00 0.00 0.00 39 1020.0
20260509224537 73 319 4.0 7.0 0.00 0.00 0.00 39 1020.2
20260509223034 73 323 5.0 10.0 0.00 0.00 0.00 41 1020.5
20260509221536 73 342 4.0 10.0 0.00 0.00 0.00 44 1020.6
20260509220037 73 326 4.0 10.0 0.00 0.00 0.00 44 1020.8
20260509214535 73 323 3.0 8.0 0.00 0.00 0.00 45 1020.9
20260509211536 71 7 3.0 10.0 0.00 0.00 0.00 47 1021.3
20260509210036 72 333 4.0 10.0 0.00 0.00 0.00 47 1021.5
20260509204538 72 348 4.0 9.0 0.00 0.00 0.00 49 1021.6
20260509201532 69 343 4.0 10.0 0.00 0.00 0.00 51 1021.9
20260509200044 70 360 5.0 9.0 0.00 0.00 0.00 51 1022.1
20260509200036 70 6 4.0 10.0 0.00 0.00 0.00 50 1022.3
20260509191533 69 7 4.0 8.0 0.00 0.00 0.00 49 1022.5
20260509190107 68 34 3.0 8.0 0.00 0.00 0.00 49 1022.7
20260509184536 67 11 3.0 8.0 0.00 0.00 0.00 49 1022.8
20260509183033 67 29 4.0 9.0 0.00 0.00 0.00 48 1023.0
20260509181532 66 8 2.0 8.0 0.00 0.00 0.00 49 1023.1
20260509174535 64 276 2.0 7.0 0.00 0.00 0.00 50 1023.1
20260509173032 64 353 2.0 7.0 0.00 0.00 0.00 50 1023.1
20260509164534 61 16 3.0 7.0 0.00 0.00 0.00 51 1023.4
20260509163036 62 336 2.0 6.0 0.00 0.00 0.00 53 1023.4
20260509161643 61 1 1.0 4.0 0.00 0.00 0.00 55 1023.6
20260509154536 60 1 0.0 2.0 0.00 0.00 0.00 59 1023.7
20260509153036 57 20 2.0 4.0 0.00 0.00 0.00 63 1023.7
20260509151537 55 338 2.0 4.0 0.00 0.00 0.00 66 1023.7
20260509150036 55 19 1.0 3.0 0.00 0.00 0.00 73 1023.6
20260509144533 52 62 0.0 3.0 0.00 0.00 0.00 82 1023.7
20260509143032 48 90 0.0 0.0 0.00 0.00 0.00 94 1023.6
20260509141533 42 112 1.0 3.0 0.00 0.00 0.00 95 1023.5
20260509140142 38 156 2.0 3.0 0.00 0.00 0.00 95 1023.3
20260509134541 36 200 1.0 3.0 0.00 0.00 0.00 94 1023.1
20260509133107 34 157 1.0 4.0 0.00 0.00 0.00 94 1022.9
20260509131607 34 141 3.0 4.0 0.00 0.00 0.00 94 1022.9
20260509130034 34 150 3.0 4.0 0.00 0.00 0.00 94 1022.7
20260509124628 35 158 3.0 4.0 0.00 0.00 0.00 94 1022.6
20260509123036 36 230 1.0 3.0 0.00 0.00 0.00 94 1022.5
20260509120035 36 173 2.0 5.0 0.00 0.00 0.00 93 1022.5
20260509114533 36 168 3.0 5.0 0.00 0.00 0.00 93 1022.5
20260509113034 36 173 3.0 4.0 0.00 0.00 0.00 93 1022.6
20260509111538 38 195 2.0 4.0 0.00 0.00 0.00 92 1022.7
20260509110036 38 248 1.0 4.0 0.00 0.00 0.00 92 1022.7
20260509104536 38 146 1.0 4.0 0.00 0.00 0.00 91 1022.7
20260509103105 39 175 1.0 5.0 0.00 0.00 0.00 90 1022.8
20260509101535 39 186 0.0 3.0 0.00 0.00 0.00 89 1022.8
20260509100108 40 183 2.0 4.0 0.00 0.00 0.00 88 1023.0